This demonstration page uses our WeatherBlox Daily Observations layout. Learn more.

Left ArrowRight Arrow

Hourly Observations for February 19, 2016

Temp ( °F °C ) Dew Point ( °F °C ) Humidity (%) Winds ( mph kmh ) Pressure ( in mb ) Visibility ( mi km ) Precip ( " mm )
12:15 am 00:15 Clear 55 13 35 1.7 46 46 W 21 33 29.50 999 10 16 N/A
12:35 am 00:35 Clear 54 12 35 1.6 49 49 W 22 35 29.53 1000 10 16 N/A
12:55 am 00:55 Clear 53 11.5 32 0.1 46 46 W 29 46 29.53 1000 10 16 N/A
1:15 am 01:15 Clear 52 10.9 29 -1.5 42 42 W 24 39 29.56 1001 10 16 N/A
1:35 am 01:35 Clear 51 10.3 30 -1.3 45 45 W 29 46 29.59 1002 10 16 N/A
1:55 am 01:55 Clear 50 10.1 28 -2.2 42 42 W 30 48 29.59 1002 10 16 N/A
2:15 am 02:15 Clear 50 10 27 -2.9 41 41 W 29 46 29.65 1004 10 16 N/A
2:35 am 02:35 Clear 48 9.1 26 -3.6 41 41 W 24 39 29.71 1006 10 16 N/A
2:55 am 02:55 Clear 47 8.6 24 -4.6 39 39 W 20 31 29.71 1006 10 16 N/A
3:15 am 03:15 Clear 47 8.1 24 -4.7 40 40 W 18 30 29.74 1007 10 16 N/A
3:35 am 03:35 Clear 47 8.6 23 -5 38 38 W 22 35 29.74 1007 10 16 N/A
3:55 am 03:55 Clear 47 8.4 23 -4.8 39 39 W 20 31 29.77 1008 10 16 N/A
4:15 am 04:15 Clear 46 7.6 24 -4.7 42 42 W 16 26 29.80 1009 10 16 N/A
4:35 am 04:35 Clear 45 7 24 -4.5 44 44 W 17 28 29.83 1010 10 16 N/A
4:55 am 04:55 Clear 44 6.5 24 -4.3 46 46 WNW 16 26 29.83 1010 10 16 N/A
5:15 am 05:15 Clear 44 6.4 24 -4.3 47 47 W 18 30 29.83 1010 10 16 N/A
5:35 am 05:35 Clear 44 6.5 24 -4.7 45 45 W 16 26 29.83 1010 10 16 N/A
5:55 am 05:55 Clear 44 6.6 23 -5 44 44 W 21 33 29.83 1010 10 16 N/A
6:15 am 06:15 Clear 42 5.5 24 -4.5 49 49 W 18 30 29.85 1011 10 16 N/A
6:35 am 06:35 Clear 43 6 24 -4.7 47 47 W 20 31 29.85 1011 10 16 N/A
6:55 am 06:55 Clear 43 6 24 -4.7 47 47 W 20 31 29.88 1012 10 16 N/A
7:15 am 07:15 Clear 43 6 23 -4.8 46 46 W 18 30 29.88 1012 10 16 N/A
7:35 am 07:35 Sunny 42 5.7 24 -4.7 48 48 W 20 31 29.91 1013 10 16 N/A
7:55 am 07:55 Sunny 42 5.8 24 -4.5 48 48 W 20 31 29.91 1013 10 16 N/A
8:15 am 08:15 Sunny 43 6.2 24 -4.2 48 48 W 20 31 29.94 1014 10 16 N/A
8:35 am 08:35 Sunny 45 7 24 -4.2 45 45 WNW 16 26 29.94 1014 10 16 N/A
8:55 am 08:55 Sunny 45 7.2 24 -4.2 45 45 WNW 17 28 29.94 1014 10 16 N/A
9:15 am 09:15 Sunny 47 8.1 25 -4 43 43 W 17 28 29.94 1014 10 16 N/A
9:35 am 09:35 Sunny 49 9.3 25 -3.7 40 40 W 20 31 29.94 1014 10 16 N/A
9:55 am 09:55 Sunny 50 10.2 25 -3.9 37 37 W 16 26 29.94 1014 10 16 N/A
10:15 am 10:15 Sunny 52 10.9 25 -4 35 35 WNW 21 33 29.94 1014 10 16 N/A
10:35 am 10:35 Sunny 53 11.7 25 -3.7 34 34 WNW 20 31 29.91 1013 10 16 N/A
10:55 am 10:55 Sunny 54 12.4 25 -3.9 32 32 WNW 15 24 29.91 1013 10 16 N/A
11:15 am 11:15 Sunny 55 12.9 25 -4 31 31 WNW 20 31 29.91 1013 10 16 N/A
11:35 am 11:35 Sunny 56 13.6 26 -3.5 31 31 WNW 14 22 29.94 1014 10 16 N/A
11:55 am 11:55 Sunny 57 14 25 -3.9 29 29 WNW 16 26 29.94 1014 10 16 N/A
12:15 pm 12:15 Sunny 59 14.8 25 -3.7 28 28 WNW 16 26 29.94 1014 10 16 N/A
12:35 pm 12:35 Sunny 60 15.4 25 -4 26 26 NW 15 24 29.91 1013 10 16 N/A
12:55 pm 12:55 Sunny 61 15.9 25 -3.9 26 26 WNW 10 17 29.88 1012 10 16 N/A
1:15 pm 13:15 Sunny 62 16.9 25 -3.8 24 24 W 14 22 29.88 1012 10 16 N/A
1:35 pm 13:35 Sunny 62 16.9 22 -5.5 21 21 WNW 9 15 29.88 1012 10 16 N/A
1:55 pm 13:55 Sunny 64 17.7 23 -5 21 21 W 14 22 29.88 1012 10 16 N/A
2:15 pm 14:15 Sunny 64 17.6 23 -4.9 21 21 W 13 20 29.88 1012 10 16 N/A
2:35 pm 14:35 Sunny 64 17.5 22 -5.8 20 20 WSW 10 17 29.85 1011 10 16 N/A
2:55 pm 14:55 Sunny 64 18 22 -5.3 20 20 WSW 12 19 29.85 1011 10 16 N/A
3:15 pm 15:15 Sunny 64 18 21 -6.1 19 19 WSW 13 20 29.85 1011 10 16 N/A
3:35 pm 15:35 Sunny 64 18 20 -6.9 18 18 WSW 13 20 29.85 1011 10 16 N/A
3:55 pm 15:55 Sunny 64 18 20 -6.8 18 18 W 15 24 29.85 1011 10 16 N/A
4:15 pm 16:15 Sunny 64 18 20 -6.7 18 18 WSW 12 19 29.85 1011 10 16 N/A
4:35 pm 16:35 Sunny 64 17.8 22 -5.7 20 20 WSW 9 15 29.85 1011 10 16 N/A
4:55 pm 16:55 Sunny 64 17.5 22 -5.3 21 21 SW 8 13 29.85 1011 10 16 N/A
5:15 pm 17:15 Sunny 63 17.1 24 -4.4 23 23 SW 9 15 29.85 1011 10 16 N/A
5:35 pm 17:35 Sunny 61 16.1 25 -3.9 25 25 SW 8 13 29.85 1011 10 16 N/A
5:55 pm 17:55 Sunny 58 14.7 27 -3 30 30 SW 9 15 29.88 1012 10 16 N/A
6:15 pm 18:15 Sunny 59 15.1 24 -4.4 26 26 SW 10 17 29.91 1013 10 16 N/A
6:35 pm 18:35 Clear 58 14.5 24 -4.5 27 27 SW 8 13 29.91 1013 10 16 N/A
6:55 pm 18:55 Clear 55 12.7 25 -3.7 32 32 SW 7 11 29.91 1013 10 16 N/A
7:15 pm 19:15 Clear 52 11 26 -3.5 36 36 SSW 8 13 29.94 1014 10 16 N/A
7:35 pm 19:35 Clear 50 10 26 -3.2 40 40 SW 8 13 29.94 1014 10 16 N/A
7:55 pm 19:55 Clear 51 10.4 26 -3.5 38 38 SW 7 11 29.94 1014 10 16 N/A
8:15 pm 20:15 Clear 50 10.2 25 -3.9 37 37 SW 6 9 29.94 1014 10 16 N/A
8:35 pm 20:35 Clear 52 10.9 24 -4.2 35 35 SW 7 11 29.94 1014 10 16 N/A
8:55 pm 20:55 Clear 49 9.4 25 -3.8 40 40 SW 7 11 29.94 1014 10 16 N/A
9:15 pm 21:15 Clear 50 9.8 25 -4 38 38 SSW 7 11 29.94 1014 10 16 N/A
9:35 pm 21:35 Clear 49 9.4 25 -3.8 40 40 SW 8 13 29.94 1014 10 16 N/A
9:55 pm 21:55 Clear 47 8.6 25 -3.8 42 42 SSW 9 15 29.94 1014 10 16 N/A
10:15 pm 22:15 Clear 48 8.7 24 -4.4 40 40 SW 7 11 29.91 1013 10 16 N/A
10:35 pm 22:35 Clear 45 7 25 -3.8 46 46 SSW 8 13 29.94 1014 10 16 N/A
10:55 pm 22:55 Clear 44 6.5 25 -4 47 47 SW 6 9 29.94 1014 10 16 N/A
11:15 pm 23:15 Clear 43 6.1 25 -4 49 49 SW 7 11 29.94 1014 10 16 N/A
11:35 pm 23:35 Clear 44 6.9 24 -4.5 44 44 SW 7 11 29.94 1014 10 16 N/A
11:55 pm 23:55 Clear 45 7 23 -4.8 43 43 SW 6 9 29.94 1014 10 16 N/A

Powered by AerisWeather